User: anonymous   Login
Location: Unspecified
(0.0000°N, 0.0000°E)
Time: 09:11:41
(UTC+00:00)
Language:

Diapason D-1A - Orbit

View from above orbital plane
View from above orbital plane
View from above satellite
View from above satellite

Ground track
Ground track

The orbit data is extracted from the following two-line orbital elements,

1 02016U 66013A   18109.77625958  .00000011  00000-0  61486-5 0  9995
2 02016  34.0924 280.8902 1187881 355.3528   3.6853 12.59649122363522
Epoch (UTC): 19 April 2018 18:37:48
Eccentricity: 0.1187881
inclination: 34.0924°
perigee height: 497 km
apogee height: 2351 km
right ascension of ascending node: 280.8902°
argument of perigee: 355.3528°
revolutions per day: 12.59649122
mean anomaly at epoch: 3.6853°
orbit number at epoch: 36352

The dashed part of the orbit path shows where the satellite is in the earth's shadow,  

DLR